This is the latest recevied weather packets stored in our database for station/object W6TKD-13. If no packets are shown the sender has not sent any weather packets the latest 1 day(s).
| Time | Temp. | Humidity | Pressure | Rain* | Wind** | Luminosity | Snow |
|---|---|---|---|---|---|---|---|
| 1778096044 | 20.56° C | 68% | 1020.1 hPa | 0 mm | - | - | - |
| 1778095374 | 20.56° C | 68% | 1020.2 hPa | 0 mm | - | - | - |
| 1778093374 | 19.44° C | 70% | 1020.3 hPa | 0 mm | - | - | - |
| 1778090040 | 17.78° C | 71% | 1020.5 hPa | 0 mm | - | - | - |
| 1778089371 | 17.78° C | 71% | 1020.5 hPa | 0 mm | - | - | - |
| 1778086704 | 17.22° C | 72% | 1020.4 hPa | 0 mm | - | - | - |
| 1778082034 | 14.44° C | 74% | 1020.3 hPa | 0 mm | - | - | - |
| 1778080700 | 13.89° C | 74% | 1020.1 hPa | 0 mm | - | - | - |
| 1778077365 | 12.78° C | 74% | 1020.2 hPa | 0 mm | - | - | - |
| 1778076698 | 12.22° C | 74% | 1020.1 hPa | 0 mm | - | - | - |
| 1778075364 | 12.22° C | 73% | 1019.8 hPa | 0 mm | - | - | - |
| 1778072030 | 12.22° C | 73% | 1019.7 hPa | 0 mm | - | - | - |
| 1778071362 | 12.22° C | 73% | 1019.6 hPa | 0 mm | - | - | - |
| 1778070028 | 12.22° C | 73% | 1019.4 hPa | 0 mm | - | - | - |
| 1778066027 | 12.22° C | 73% | 1019.1 hPa | 0 mm | - | - | - |
| 1778065359 | 12.22° C | 73% | 1019.2 hPa | 0 mm | - | - | - |
| 1778064692 | 12.22° C | 73% | 1019 hPa | 0 mm | - | - | - |
| 1778064025 | 12.22° C | 73% | 1018.9 hPa | 0 mm | - | - | - |
| 1778063358 | 12.22° C | 73% | 1018.9 hPa | 0 mm | - | - | - |
| 1778060690 | 12.22° C | 74% | 1018.7 hPa | 0 mm | - | - | - |
| 1778060024 | 12.22° C | 74% | 1018.7 hPa | 0 mm | - | - | - |
| 1778059356 | 12.22° C | 74% | 1018.6 hPa | 0 mm | - | - | - |
| 1778058689 | 12.22° C | 74% | 1018.7 hPa | 0 mm | - | - | - |
| 1778058022 | 12.22° C | 74% | 1018.8 hPa | 0 mm | - | - | - |
| 1778057355 | 12.22° C | 74% | 1018.8 hPa | 0 mm | - | - | - |
* Rain since midnight (hover to see other rain measurements)
** Current wind speed in m/s (hover to see current wind gust speed)